sat.trackr.live / text

‹ back to catalog

STARLINK-37253

NORAD 68606 · 2026-073E

PAYLOAD ACTIVE UNKNOWN

§ Identity

Operator
Country
US
Launch date
2026-04-07
Launch site
AFWTR
Launch vehicle
Mass (kg)
RCS (m²)

Purposes: comms

External: N2YO · Heavens-Above · Gunter

§ Orbital elements

Epoch: 2026-05-25T04:00:03.998880Z

Period
92.18 min
Inclination
97.2851°
Eccentricity
0.0001608
Mean motion
15.62187558 rev/d
Perigee alt
380.3 km
Apogee alt
382.4 km
Semi-major
6,759.5 km
B*
-2.5085e-2
RAAN
344.7225°
Arg perigee
73.6868°
Mean anomaly
21.6451°
Rev number
595

§ Raw data

STARLINK-372531 68606U 26073E   26145.16671295 -.01942689  00000+0 -25085-1 0  99902 68606  97.2851 344.7225 0001608  73.6868  21.6451 15.62187558  5956

JSON: /api/v1/satellites/68606 · /tle

For live sub-satellite position, see the globe view (requires WebGL).

§ Visibility from observer

Set your observer location to see the next 7 days of passes ≥ 10°. The values pass through the URL so the page stays shareable.

No JS? Fill the form by hand. The geolocation button needs JavaScript.